STARLINK-1183, 45088

Orbit data source: Space-Track

STARLINK-1183, 45088 is a payload satellite owned by SpaceX/Seattle (US) in LEO that was launched on Wed, 29 Jan 2020 UTC via an FALCON 9 launch vehicle from the Air Force Eastern Test Range (AFETR). Payload-class satellites include a variety of spacecraft equipped with specific instruments for various scientific and technological missions. These include communications satellites like Starlink; space stations such as the ISS; scientific satellites like the Hubble; Earth observation satellites from companies like Planet Labs, Umbra, and HawkEye 360; GPS; miniature CubeSats for education and research; and military/defense satellites.

Loading next visibility...
Identifier
45088, 2020-006AW
Orbit
LEO
Country
Flag of USUS
Related business
Manufacturer
SpaceX/Seattle
Mission
Operational Commercial Communications
Bus & Motor
STARLINK, Unknown motor
Mass
260 kg wet, ~248 kg dry
Launch date (UTC)
2020-01-29 (6 years ago)
Launch vehicle
FALCON 9
Launch site
Air Force Eastern Test Range (AFETR)
Object type
Payload
Rocket body
Debris
Shape & HBR
Box + 1 Pan, 10.1 m
Radar Cross Section
13.562 m², Large (>1 m²)

Expand to show TLE details & history
Last TLE update: 1 day ago

TLE from 1 day ago
0 STARLINK-1183
1 45088U 20006AW  25286.01120533 -.00003389  00000-0 -20873-3 0  9999
2 45088  53.0544 189.5746 0001587  80.9830 279.1339 15.06395147314763
Epoch: 2025-10-13T00:16Z
TLE epoch observation values (Epoch: 2025-10-13T00:16:08.140Z)
Latitude
0.00001°
Longitude
163.72058°
Altitude
547.931 km
Speed
7.589 km/s
True Right ascension
12h 38m 17s
True Declination
0° 00' 00"
Sunlit
Object was in daylight at epoch
Visualization orbit readout
Latitude
Unknown
Longitude
Unknown
Altitude
Unknown
Speed
Unknown
Apparent Right ascension
Unknown
Apparent Declination
Unknown
Sunlit
N/A
Visualization observer readout
Local Sidereal Time
22:27:47
Azimuth
Unknown
Elevation
Unknown
Doppler factor
Unknown
Orbital elements
Apogee altitude
548.596 km
Perigee altitude
546.398 km
Semi-major axis
6,925.634 km
Eccentricity
0.00016
Inclination
53.0544°
RAAN
189.5746°
Arg. of periapsis
80.983°
True anomaly
279.11594°
Mean anomaly
279.1339°
Eccentric anomaly
279.12492°
Mean motion
3.76577 °/min
Orbital period
95.6 mins
BSTAR
-0.00020873
Loading maneuver chart data...
Computing Atmospheric mass density...
Loading historical data...
Loading historical data...
Loading historical data...
Loading historical data...
Loading historical data...
Loading historical data...
Loading historical data...

Documentation

Showing up to 5 results
|